RADUGA 4 [-]

Last updated on Wed Jun 28 2023 00:02:57 GMT+0000 (Coordinated Universal Time)

1 10987U 78073A 23177.75794662 -.00000306 00000+0 00000+0 0 9994 2 10987 7.5302 291.8763 0007366 12.6167 345.4520 1.00320899108694
UTC large
Height (km)
Speed (km/s)
/
Latitude / Longitude
Inclination (degrees)
Orbital Period (minutes)
Azimuth
Elevation
Range (km)
Doppler Factor

Next 0 passes for location: London (51.5072 / 0.1276)

Sorry there are no passes over London.
RADUGA 4 [-]